{"data":{"norad_id":63476,"epoch":"2026-09-20T15:09:06.279552Z","epoch_age_seconds":145021,"freshness":"FRESH","line1":"1 63476U 25070S   26263.63132268  .00011954  00000+0  44316-3 0  9990","line2":"2 63476  42.9953 238.5694 0000401 308.5745  51.5071 15.27584803 82792","mean_motion":15.27584803,"eccentricity":4.01e-5,"inclination_deg":42.9953,"raan_deg":238.5694,"arg_perigee_deg":308.5745,"mean_anomaly_deg":51.5071,"bstar":0.00044316,"rev_number":8279,"period_min":94.266452322124,"perigee_km":482.75958118173,"apogee_km":483.3098471532,"semimajor_km":6861.1717141675,"source":"CELESTRAK","updated_at":"2026-09-21T09:00:35.010463Z"}}